Temp
7 7 7 7 7 8 8 7 7 7 7 7 7 7 8 8 8 8 8 8 8 8 8 8 8 9 9 10 9 10 10 11 12 14 16 19 20 19 19 19 19 19 19 19 20 20 21 22 23 23 24 24 25 25 25 25 26 25 26 25 24 26 27 28 28 27 27 28 28 28 28 28 28 29 29 29 29 28 27 26 26 27 27 27 27 26 23 22
7 7 7 7 7 7 7 7 7 7 7 7 7 7 8 8 8 8 8 8 8 8 8 8 9 10 11 12 12 12 11 11 14 17 18 19 19 18 18 18 19 19 19 20 21 22 22 23 23 23 24 25 25 25 24 25 25 25 26 25 26 28 27 27 27 27 27 27 27 28 28 28 28 28 29 29 29 29 27 26 26 26 26 26 26 24 22 22
7 7 7 7 7 7 7 7 7 7 7 7 7 7 7 7 8 7 8 8 8 8 8 9 10 12 13 13 14 13 11 13 17 20 20 19 19 18 18 18 18 19 19 21 22 23 24 24 23 24 24 25 25 24 24 25 25 26 26 25 27 28 26 26 27 26 27 27 27 27 28 28 28 29 29 29 29 29 28 27 26 25 25 25 25 24 22 22
7 7 7 7 7 7 7 7 7 7 7 7 7 7 7 7 7 7 7 8 7 8 10 11 12 13 14 14 15 14 12 17 21 22 20 19 20 19 18 18 18 19 19 21 22 23 24 24 24 24 25 25 24 24 24 25 25 26 26 26 27 27 26 26 26 26 27 27 27 27 27 28 29 29 29 29 29 29 29 28 27 26 26 25 24 24 23 23
7 7 7 7 7 7 7 7 7 7 7 7 7 7 7 7 7 7 7 8 8 9 11 12 14 15 15 15 15 13 14 20 23 21 20 20 20 19 18 18 18 18 19 20 22 22 23 24 24 24 24 25 24 24 25 25 25 25 25 26 26 26 26 26 26 27 26 27 27 27 27 28 28 29 29 29 29 29 29 29 29 27 26 26 25 24 24 23
7 7 7 7 7 7 7 7 7 7 7 7 7 7 7 7 7 7 7 7 8 9 11 12 14 15 15 16 15 14 17 22 22 21 20 20 20 19 19 18 18 18 19 21 22 22 23 23 24 23 24 25 24 24 25 25 25 25 26 27 26 26 26 26 26 26 26 27 26 27 27 27 28 28 29 29 29 30 30 29 29 28 27 27 26 25 24 23
6 6 7 7 7 7 7 7 7 7 7 7 7 7 7 7 7 7 7 7 8 9 11 12 14 15 16 16 15 15 19 23 22 20 20 20 20 19 19 18 18 18 20 22 23 23 23 23 24 24 25 25 25 25 25 25 25 25 26 26 26 26 26 26 26 26 26 26 26 27 27 27 27 28 29 29 29 30 29 29 29 28 27 27 26 24 24 23
6 6 6 7 7 7 7 7 7 7 7 7 7 7 7 7 7 7 7 7 8 9 11 12 14 15 15 15 17 19 22 23 21 20 20 19 19 19 18 18 18 19 21 23 23 23 23 23 24 25 25 25 25 25 24 25 25 24 25 26 26 26 26 26 26 26 26 26 27 27 26 27 28 28 28 29 30 29 28 28 28 27 26 26 25 24 24 23
6 6 6 6 7 7 7 7 7 7 7 7 7 7 7 7 7 7 7 7 7 8 10 12 14 14 14 15 18 22 23 21 20 20 19 18 19 19 19 18 18 20 22 23 23 24 24 24 25 25 25 25 25 25 24 24 25 25 25 26 25 25 26 26 26 26 26 27 27 26 26 28 28 27 28 29 29 28 28 28 28 27 26 26 25 23 23 23
6 6 6 6 7 7 7 7 7 7 7 7 7 7 7 7 7 7 7 7 7 7 8 10 13 14 13 15 19 22 21 20 19 20 18 17 18 19 19 19 19 21 22 23 23 24 24 24 25 24 24 25 24 25 24 24 25 25 25 25 25 25 26 26 25 26 26 27 27 26 26 28 28 27 28 29 28 28 28 27 27 27 26 26 25 23 23 23
6 6 6 6 6 6 7 7 7 7 7 7 7 7 7 7 7 7 7 7 7 7 7 9 12 13 13 16 20 22 21 19 19 19 18 18 18 19 20 20 20 21 23 22 23 23 23 24 25 24 24 24 24 24 24 25 25 25 25 25 25 25 25 25 26 26 26 27 27 27 27 27 27 27 28 28 28 28 27 27 27 27 27 26 25 23 23 23
6 6 6 6 6 6 6 7 7 7 7 6 7 6 7 7 8 8 8 7 7 7 7 8 11 12 13 17 20 21 20 19 19 19 18 18 18 19 19 19 20 21 22 23 23 23 23 23 24 24 24 24 24 24 24 25 25 25 24 24 25 26 25 26 26 26 26 26 27 27 26 27 27 27 29 28 27 28 27 27 27 27 27 26 25 24 23 24
6 6 6 6 6 6 6 6 7 7 7 6 6 6 8 10 11 11 10 7 7 7 7 8 10 11 14 19 21 20 19 18 18 18 18 19 19 19 19 19 20 21 21 22 23 22 22 22 23 24 24 24 25 24 24 25 24 24 25 24 25 25 25 26 26 26 26 26 27 26 24 26 29 29 28 28 27 27 27 27 27 27 27 26 25 24 24 24
6 6 6 6 6 6 6 6 6 7 7 6 6 7 10 12 12 12 11 9 7 7 7 8 10 11 14 20 21 19 19 18 17 18 19 19 20 20 19 19 19 20 20 21 22 21 21 22 22 23 24 24 25 24 24 24 24 25 25 24 25 24 24 26 26 26 26 25 26 26 23 25 29 29 28 27 27 27 27 27 27 27 27 26 25 24 24 24
6 6 6 6 6 6 6 6 7 7 6 6 7 9 11 11 11 11 11 9 9 8 8 8 10 12 17 21 20 18 18 18 18 19 19 19 20 21 21 19 20 20 20 21 21 21 21 22 22 23 23 24 24 24 24 24 25 25 23 23 24 24 24 26 26 26 26 26 27 26 23 26 29 28 27 27 27 27 27 28 27 26 26 26 25 25 24 24
6 6 6 6 6 6 6 6 7 7 6 6 8 10 11 10 10 10 10 10 10 9 8 11 12 13 18 21 19 18 18 19 20 20 19 19 20 21 21 20 20 20 20 20 21 21 21 22 23 23 24 23 23 24 24 24 24 25 23 22 23 23 24 25 26 26 26 26 27 26 25 27 29 28 27 27 27 27 27 28 27 26 26 26 26 25 24 24
6 6 6 6 5 6 6 6 6 6 6 7 9 11 10 10 9 9 10 9 9 9 10 13 13 14 18 20 19 20 21 21 20 20 19 19 20 21 21 21 21 21 21 21 21 22 22 22 22 23 23 23 24 24 23 21 22 23 24 23 23 24 23 24 25 26 26 26 26 26 26 27 28 28 27 27 27 27 27 28 27 26 26 26 26 26 25 24
5 6 5 5 5 5 5 5 6 6 6 8 11 11 10 10 9 9 10 9 9 10 11 13 13 16 20 20 20 21 21 21 20 20 19 19 20 21 21 22 22 21 21 21 21 22 22 22 23 23 23 23 24 24 22 21 22 23 23 22 23 24 23 23 24 25 26 25 26 26 26 26 28 28 28 27 27 27 27 28 28 27 26 26 26 26 25 24
5 6 5 5 5 5 5 5 5 5 7 10 11 10 10 10 9 10 11 11 12 15 16 15 16 20 21 20 21 21 21 20 20 21 20 19 20 21 22 22 22 22 22 21 21 22 22 22 22 22 22 23 23 24 23 24 24 23 23 23 23 23 23 24 25 25 25 25 25 26 26 26 28 28 28 28 27 27 27 27 27 28 27 27 26 26 26 25
5 5 5 5 5 5 6 5 5 6 8 10 10 10 12 13 14 14 13 13 16 18 19 19 19 20 20 20 21 21 21 21 21 22 21 20 20 21 22 22 22 22 22 22 22 22 22 22 21 22 23 24 24 24 25 25 24 24 24 23 23 23 23 25 24 25 25 24 25 26 26 26 27 28 29 28 27 27 27 27 27 28 28 27 27 26 26 25
5 5 5 5 5 5 6 5 5 7 9 10 9 12 16 16 17 17 15 16 19 19 19 19 20 20 20 20 21 21 21 21 22 22 21 20 21 22 22 22 21 21 22 23 22 22 22 21 22 23 24 24 24 24 23 23 23 23 23 23 23 23 24 25 24 24 25 23 24 26 25 26 27 27 28 28 27 27 27 27 27 27 28 28 28 27 26 26
5 5 5 5 5 5 5 5 6 8 10 10 10 14 17 15 14 14 14 17 19 19 18 18 19 19 19 20 19 19 19 20 21 22 21 20 22 22 22 22 21 22 22 22 21 21 21 21 23 24 24 23 23 23 22 22 22 23 23 23 22 24 25 24 24 24 25 23 24 26 25 25 27 27 28 28 27 27 28 28 28 28 28 28 28 28 27 26
5 5 5 5 5 5 5 6 7 9 9 9 12 15 15 13 13 13 14 15 18 19 19 18 18 18 19 19 19 18 18 19 21 22 22 21 22 22 22 22 22 23 22 21 22 21 21 22 24 24 23 22 22 22 22 22 22 22 23 22 22 24 24 22 23 24 24 24 24 25 24 25 26 27 27 28 28 28 28 28 28 28 28 28 28 28 27 26
4 5 5 5 5 5 6 7 8 9 8 9 11 13 13 12 12 13 14 16 18 19 19 18 18 19 19 19 19 18 19 20 21 22 22 21 22 22 22 22 22 22 22 22 22 22 22 23 24 23 22 22 22 21 22 21 22 23 23 22 22 24 23 22 24 24 24 24 24 24 22 23 26 26 27 28 27 27 27 27 27 27 28 28 28 28 28 26
4 5 5 5 5 5 7 7 9 9 9 11 12 12 12 11 12 12 14 17 19 19 19 18 18 19 19 18 18 19 19 20 21 23 23 22 23 22 22 23 23 22 22 23 22 22 23 23 22 22 22 22 22 22 22 22 22 22 23 23 23 24 23 23 24 23 22 22 24 23 21 22 26 27 27 28 27 26 27 26 26 27 27 27 27 28 28 27
4 5 5 5 5 5 8 10 10 8 10 13 13 11 11 11 11 11 14 18 20 20 19 18 19 19 19 19 19 19 19 20 21 22 22 23 23 23 22 23 23 23 23 23 22 22 23 22 22 22 22 22 22 22 23 22 21 22 23 24 24 24 23 23 23 22 21 22 23 24 21 21 24 25 27 28 27 27 27 25 25 26 26 26 27 27 27 27
4 4 4 5 4 5 9 11 9 9 12 13 11 11 11 11 11 12 15 18 19 20 20 19 19 19 19 20 20 19 19 20 21 22 22 22 23 23 22 22 22 22 23 23 21 22 23 22 22 22 22 22 22 22 23 23 21 22 23 24 23 24 23 23 23 22 22 23 23 24 23 21 21 24 28 27 26 27 27 25 24 24 25 25 26 27 27 27
4 4 4 5 4 4 6 8 8 11 13 12 10 11 11 11 12 13 16 18 19 20 20 20 19 19 20 20 20 20 20 21 20 21 22 23 23 23 22 22 22 22 23 22 20 22 22 21 21 22 21 21 22 23 23 23 22 23 24 23 23 24 23 24 23 22 23 22 21 22 23 21 21 24 27 27 26 27 26 24 24 24 24 24 24 26 26 26
4 4 4 4 4 5 5 5 8 11 11 10 10 11 11 11 12 15 17 17 19 20 20 20 19 19 20 20 19 20 20 21 21 21 22 22 22 22 22 23 23 23 22 22 22 22 22 22 22 22 22 22 23 24 24 23 22 23 24 23 23 23 23 23 23 22 22 21 20 22 23 21 21 23 26 25 25 26 25 24 24 24 23 23 23 24 26 26
4 4 4 4 5 6 6 6 8 9 10 10 10 11 11 12 14 17 17 17 19 20 20 20 20 20 21 20 20 20 20 21 21 21 21 21 22 22 22 23 23 23 22 22 23 23 22 22 22 22 23 23 23 24 24 23 23 23 23 23 23 23 23 23 23 22 21 20 21 22 22 22 21 22 24 24 23 24 24 23 24 23 23 23 23 24 25 25
4 4 4 4 6 7 8 10 10 9 9 10 10 11 12 15 17 17 17 17 19 20 20 20 20 20 21 20 21 21 20 21 21 21 20 21 21 21 22 22 22 22 21 21 22 22 22 21 22 23 23 23 23 23 23 23 23 23 23 23 22 22 22 22 22 21 20 20 21 22 23 22 20 22 24 24 23 23 23 23 23 23 23 23 23 24 25 24
4 4 4 4 5 5 7 11 10 9 10 10 11 13 15 16 17 17 18 18 18 19 19 19 19 20 20 20 20 21 21 21 21 21 21 21 21 21 21 21 21 21 20 20 21 22 22 22 22 23 23 23 23 22 22 22 22 22 22 22 21 21 21 20 20 21 20 21 21 22 22 21 21 23 24 24 23 23 22 22 22 22 23 23 23 24 24 23
4 4 4 5 5 5 7 9 8 8 10 10 12 16 17 16 16 17 19 19 18 18 19 18 19 20 20 20 21 21 21 21 21 22 22 22 21 21 22 23 23 22 21 21 21 21 21 22 23 23 23 23 23 22 22 22 22 22 22 21 20 20 20 20 20 20 21 21 21 22 22 21 22 23 23 23 22 22 22 22 21 21 22 22 22 23 23 22
5 5 5 5 5 6 7 7 8 8 9 11 14 16 16 15 16 17 18 19 18 18 19 19 19 20 20 21 21 21 21 21 21 22 22 22 21 21 22 22 23 23 22 21 21 21 20 21 22 22 23 23 23 23 23 23 23 23 23 23 21 21 20 20 20 21 21 21 21 22 21 21 21 21 22 23 22 22 22 21 21 20 20 21 21 21 21 22
6 6 6 6 6 7 7 7 7 8 9 13 16 16 15 16 17 17 17 18 18 18 19 19 19 20 21 21 21 21 20 20 21 22 22 22 21 21 22 22 22 23 22 21 20 21 20 21 23 24 23 24 23 24 24 24 23 23 25 23 21 22 22 21 20 20 20 21 21 21 21 22 22 21 22 23 22 22 21 21 21 20 20 20 20 20 20 20
7 7 7 7 8 8 8 7 7 8 11 15 16 16 16 17 17 17 17 17 17 17 18 19 19 20 20 21 20 21 20 20 21 21 21 22 22 22 22 22 22 22 22 21 21 21 20 21 23 23 22 23 24 24 25 24 22 23 23 22 23 25 24 21 20 20 20 20 21 21 21 23 23 22 23 23 22 22 21 21 21 20 19 20 20 20 20 20
7 9 10 11 9 9 9 8 8 9 12 16 16 16 16 16 16 17 16 16 17 17 17 18 19 19 19 20 20 20 21 20 20 21 21 21 21 22 22 23 23 23 23 23 22 22 21 21 23 23 22 23 24 24 24 24 24 22 22 23 24 25 24 22 20 20 20 20 21 21 21 21 22 21 22 22 22 22 21 21 21 20 20 20 20 20 20 19
7 9 12 12 10 10 11 10 10 12 15 16 15 15 16 16 16 16 16 16 16 17 17 18 18 18 19 19 20 20 20 20 21 20 21 21 21 21 22 22 22 22 23 23 22 22 22 20 22 24 23 23 23 23 22 24 24 23 23 24 24 22 21 21 20 20 20 20 20 21 21 21 21 21 21 22 22 21 21 21 21 21 20 20 20 20 19 18
7 11 13 12 10 11 11 10 11 14 16 16 15 16 16 16 16 16 16 16 16 17 17 17 18 18 18 19 19 20 20 20 21 20 20 21 20 20 21 22 22 21 22 23 22 22 22 20 21 23 23 23 23 22 21 22 23 23 23 24 24 22 21 21 21 21 21 20 21 21 21 21 21 22 22 22 22 21 20 21 21 20 20 20 21 20 19 18
10 13 14 11 11 12 11 11 13 15 16 16 16 16 15 16 16 16 16 16 16 17 17 17 17 17 18 18 19 19 19 20 20 20 20 20 20 19 20 21 21 21 21 21 22 22 22 20 20 22 23 22 22 22 22 22 23 22 22 22 22 22 22 22 22 22 21 20 21 20 21 21 20 21 22 21 21 20 20 20 20 19 20 21 21 20 19 19
12 14 13 11 11 11 10 12 14 16 16 16 16 16 15 15 16 16 16 16 16 17 17 17 17 17 17 18 18 19 19 19 20 20 20 20 20 19 19 19 19 20 21 21 22 21 21 20 20 21 21 21 22 23 23 23 23 23 22 22 22 22 22 21 21 22 21 21 21 20 21 21 19 20 21 20 19 20 20 20 19 19 19 19 19 19 18 18
13 14 13 11 11 11 12 14 15 15 16 15 15 15 15 15 15 16 16 16 16 17 17 16 17 17 17 17 18 18 18 19 20 19 19 20 19 18 18 18 18 20 20 21 21 21 20 21 20 20 21 22 22 22 22 22 23 23 23 23 24 23 22 20 20 21 21 21 21 21 21 20 18 18 19 19 18 18 19 19 19 19 17 17 17 17 17 16
14 14 12 11 11 11 13 15 15 15 16 15 15 15 15 15 15 15 16 16 16 16 16 16 17 17 17 17 17 18 18 18 19 19 19 19 19 18 18 18 18 19 20 21 21 20 19 20 20 20 21 22 22 22 21 21 22 22 22 22 22 23 22 21 21 21 21 21 21 21 21 20 17 16 18 18 17 17 17 17 17 17 16 16 16 16 15 15
15 14 13 12 11 12 14 15 15 15 15 14 15 15 15 15 15 15 16 16 16 16 16 16 17 17 17 17 17 17 18 17 18 19 19 19 18 18 18 18 19 19 19 19 19 19 19 19 20 19 20 21 21 20 21 21 21 22 21 21 21 21 22 22 22 22 21 21 21 21 20 19 17 17 18 18 16 15 14 14 14 14 14 15 16 15 14 14
15 14 14 13 13 13 14 15 15 15 14 14 14 14 15 15 15 15 15 15 16 16 16 16 17 16 17 17 17 17 17 17 17 18 18 18 18 18 18 18 18 18 17 17 18 19 18 18 19 19 19 19 19 18 19 20 21 21 20 20 19 20 21 21 21 21 21 21 21 21 20 18 17 17 18 17 16 14 13 13 13 13 14 14 14 13 12 12
15 14 13 13 14 15 14 14 15 15 14 14 14 14 14 15 15 15 15 15 16 16 16 16 16 16 16 17 16 17 18 17 17 17 18 18 18 18 17 17 17 17 16 16 18 18 18 17 16 17 17 18 18 17 18 19 21 20 19 19 19 18 19 20 21 21 20 21 21 21 21 19 17 18 18 16 14 13 13 12 12 13 13 12 13 12 12 11
15 15 14 14 14 14 15 15 15 15 14 14 14 14 14 15 15 15 15 15 16 16 16 16 16 16 16 16 15 16 17 17 17 17 17 17 18 18 17 16 15 15 15 17 18 18 18 17 16 15 15 16 17 17 18 19 19 19 18 18 18 18 18 19 20 19 19 20 20 20 21 20 18 18 17 15 13 12 11 11 11 12 12 12 12 12 12 11
14 15 15 14 14 15 15 15 15 14 14 14 14 14 14 15 15 14 15 15 16 16 15 15 15 16 15 15 15 15 16 17 16 16 16 17 17 17 17 17 15 15 15 17 18 17 16 16 17 15 14 15 16 17 18 18 18 17 17 17 17 18 18 18 18 18 18 19 19 19 20 19 16 14 13 13 12 11 10 10 11 11 11 12 12 12 11 11
14 15 14 13 14 15 14 14 14 14 14 14 14 14 14 14 14 14 15 15 15 15 15 15 14 15 15 15 16 15 15 15 15 15 15 15 15 16 16 16 16 16 15 15 17 17 15 16 17 16 15 14 15 16 17 18 17 16 16 16 16 17 17 17 17 17 18 19 18 18 16 14 12 11 11 11 11 10 10 10 10 10 10 10 10 10 10 10
15 15 14 14 14 14 13 13 14 14 14 14 14 14 14 14 14 14 15 15 14 15 15 15 14 15 15 15 16 15 14 15 14 14 14 14 14 15 15 15 15 15 14 13 14 14 15 16 17 17 16 15 15 15 16 17 17 15 15 14 15 15 15 15 14 14 16 18 17 16 14 12 10 10 10 10 10 10 10 9 9 9 9 9 9 8 9 9
13 13 13 15 15 13 13 14 14 15 14 14 14 14 14 14 14 14 14 15 15 14 15 15 14 15 14 14 15 15 15 15 14 14 14 14 15 15 15 15 15 15 14 13 12 12 14 14 14 17 17 15 15 16 15 16 16 15 13 12 12 13 13 13 13 12 14 16 16 16 15 12 10 10 9 9 9 9 8 8 8 8 8 8 8 8 8 8
13 13 13 15 14 12 14 14 14 14 14 13 13 13 13 14 14 14 14 14 15 15 15 15 14 15 14 14 14 15 15 14 14 15 15 15 15 15 15 16 16 15 15 14 12 12 14 14 14 16 16 15 15 16 15 15 15 14 11 9 10 11 11 12 12 12 11 13 14 16 14 11 10 10 9 8 8 7 7 7 7 7 8 8 7 7 7 7
Height
815 814 813 813 812 812 811 810 809 808 807 806 805 805 804 803 802 801 800 798 797 796 795 793 792 791 790 788 787 786 784 783 783 783 781 777 775 775 775 775 776 777 778 779 782 782 782 783 783 784 783 783 782 781 784 782 780 784 785 787 783 775 770 769 771 772 773 773 773 771 769 772 770 764 759 756 758 760 763 763 762 761 760 759 759 763 769 774
814 813 812 812 812 811 811 810 809 807 806 805 805 804 804 803 802 800 799 798 797 795 793 792 791 790 789 787 786 785 783 783 782 780 777 775 774 774 774 774 775 776 777 779 780 779 780 780 781 782 781 782 782 781 784 782 782 783 782 784 777 769 769 770 772 773 774 776 775 771 769 770 769 766 761 761 762 761 765 767 765 766 765 763 763 767 772 774
814 813 812 811 811 811 810 809 808 806 805 804 803 803 802 802 801 799 798 797 795 793 792 791 789 789 788 786 785 784 783 782 779 776 774 774 773 773 773 773 775 776 777 778 778 778 778 778 780 780 779 781 781 782 784 782 783 780 779 782 773 768 773 772 773 775 774 774 775 773 770 769 766 763 762 764 762 759 764 766 768 770 769 767 767 769 772 773
813 812 811 811 810 810 810 808 807 805 803 802 802 801 800 800 799 798 797 796 794 793 791 790 789 788 787 785 784 783 783 780 774 772 773 773 772 772 772 773 774 776 777 778 779 778 778 778 779 779 780 781 781 782 783 782 781 778 779 778 771 771 775 773 774 774 773 773 774 773 771 769 764 761 762 763 763 761 761 760 762 766 766 767 767 768 770 771
813 812 811 810 810 809 808 807 805 804 803 801 800 799 799 798 798 798 797 795 793 792 790 789 788 787 786 785 784 783 783 778 771 771 773 772 771 771 771 772 775 777 778 779 779 779 779 778 778 779 780 780 782 783 781 778 778 778 778 774 772 775 775 772 772 772 772 772 773 773 771 769 764 762 761 763 766 761 757 755 755 759 761 763 765 766 768 770
812 811 810 809 808 808 807 806 804 803 802 800 799 798 797 797 797 796 796 794 792 791 789 788 787 786 785 784 783 783 782 776 770 771 771 771 771 770 771 773 775 777 779 779 778 778 778 778 779 781 779 778 781 781 779 776 777 780 775 771 773 774 774 773 771 772 771 772 774 772 769 768 767 765 760 762 763 756 752 752 752 755 758 760 762 765 767 770
812 810 809 808 807 806 805 805 803 802 801 799 797 796 796 796 796 795 794 793 791 790 789 787 786 785 784 783 783 781 777 772 770 771 770 770 770 770 772 774 776 778 778 778 777 777 777 778 778 777 777 778 779 778 777 776 777 780 775 772 773 773 774 773 771 771 770 772 772 769 768 769 769 766 761 761 757 752 751 751 751 754 757 759 762 765 767 769
811 810 808 807 806 805 804 803 802 801 799 798 796 795 794 794 794 793 792 791 790 789 788 787 785 785 784 783 781 777 772 770 770 771 769 770 770 771 773 775 777 778 777 777 776 775 775 778 776 775 777 776 776 776 777 778 778 779 776 773 773 773 773 771 770 770 770 770 768 768 770 768 765 764 763 760 754 752 752 750 751 754 757 759 763 766 768 769
811 809 807 806 805 804 803 802 801 799 798 796 795 793 793 792 792 792 791 790 789 788 787 786 785 784 783 782 780 773 768 769 771 770 769 770 770 772 773 775 777 777 777 776 775 775 775 776 774 773 775 774 775 776 777 779 777 775 774 772 773 773 771 770 770 770 769 768 767 770 771 765 761 763 763 756 754 753 752 752 752 754 758 760 763 767 768 770
810 808 807 805 803 803 802 801 800 798 796 794 793 793 792 791 791 790 789 788 788 787 786 785 784 784 784 782 778 772 768 770 771 770 769 770 771 773 774 775 777 777 776 776 776 775 774 774 772 773 774 774 775 775 776 777 773 771 773 773 773 773 770 770 771 769 768 766 767 770 770 764 761 765 764 755 753 753 753 755 754 755 759 760 763 767 769 771
809 807 805 803 802 802 801 799 798 796 795 793 792 792 791 790 789 788 788 787 786 786 785 784 783 784 783 781 776 770 768 770 770 770 770 770 772 774 775 776 776 777 776 776 776 775 775 774 772 774 775 774 774 776 775 773 771 772 774 775 773 772 770 770 770 768 767 766 763 765 767 764 763 765 761 755 753 753 755 757 756 757 759 760 764 767 769 770
808 806 804 803 802 801 800 798 796 795 793 793 792 790 789 788 787 786 786 785 785 784 784 783 783 783 783 779 773 768 767 770 770 770 771 771 773 774 775 776 776 777 776 775 776 776 777 775 774 775 774 772 774 777 775 770 772 773 774 776 773 770 770 767 767 766 766 766 760 763 770 766 763 762 755 754 754 753 756 758 758 758 757 760 763 767 768 768
807 805 803 802 801 800 798 797 795 794 792 791 790 789 788 786 785 784 783 783 783 783 783 783 782 783 783 775 767 766 768 769 770 770 772 772 773 774 775 776 776 777 777 776 776 777 778 777 776 774 773 772 773 775 773 771 774 774 773 775 772 770 768 764 765 766 765 766 761 766 775 764 755 755 752 753 754 754 757 758 759 758 757 760 763 766 767 767
805 804 802 801 799 798 797 795 794 792 791 790 789 788 786 784 783 782 782 781 781 782 782 782 782 783 781 770 764 766 767 768 769 770 771 772 773 774 774 775 776 777 777 777 777 778 778 778 777 775 773 772 771 772 773 774 775 773 773 774 772 771 767 762 765 765 765 765 760 766 775 761 749 752 753 753 753 755 758 758 759 759 758 760 762 766 767 766
804 803 801 800 798 797 796 794 792 791 790 789 788 786 784 783 782 781 781 780 780 780 781 782 782 782 776 766 763 765 765 767 768 768 770 771 771 772 773 775 776 777 777 778 778 778 778 778 778 776 775 772 772 775 775 774 772 772 776 774 769 769 766 763 764 764 765 764 759 765 771 758 749 753 754 753 753 755 756 756 758 759 759 760 761 764 766 766
803 801 800 799 798 796 795 793 792 790 789 787 786 785 783 782 781 781 780 779 779 779 781 782 781 780 772 763 763 764 764 765 765 766 768 769 770 770 771 773 775 777 777 777 778 778 778 777 776 774 774 775 776 775 773 775 773 770 774 771 767 768 766 764 764 762 763 764 761 764 766 757 751 754 754 753 754 755 756 755 756 759 759 760 761 762 764 766
801 800 799 798 797 795 794 793 791 790 787 786 785 783 782 781 781 780 779 780 780 780 782 780 779 779 769 761 762 762 761 763 764 765 766 767 769 769 771 772 773 775 775 777 778 777 777 776 777 776 775 775 772 772 778 781 775 769 771 770 767 768 768 766 765 762 762 764 764 764 765 759 753 752 753 754 754 755 756 755 755 758 759 759 758 759 763 765
801 799 798 797 796 795 794 792 791 788 786 785 784 783 782 780 780 780 780 780 781 781 781 779 778 775 765 760 761 760 759 762 763 764 766 767 768 769 770 770 771 773 774 776 776 776 777 775 776 776 776 776 772 774 780 777 768 766 769 770 767 767 769 769 766 763 763 765 765 765 765 761 753 749 751 753 753 754 755 753 753 755 757 758 756 757 760 764
800 798 797 796 795 794 793 791 789 787 785 784 783 783 781 781 780 781 781 780 778 775 771 772 771 765 761 760 759 759 760 761 762 763 764 765 767 768 768 768 769 770 772 775 775 774 775 776 778 779 776 775 773 770 769 765 765 766 766 768 768 767 766 765 765 763 763 768 767 765 763 759 754 749 748 750 752 754 754 752 752 752 752 753 755 755 758 762
798 797 796 795 794 793 792 790 788 786 785 783 783 783 780 778 775 774 777 777 771 765 761 763 762 757 758 758 757 759 760 760 760 760 762 764 765 766 766 767 768 770 770 772 774 772 773 778 780 776 770 767 767 766 763 764 769 770 769 769 767 767 763 762 767 764 762 770 767 761 761 758 754 750 746 747 751 754 754 753 753 750 749 750 752 755 757 759
797 796 795 794 793 792 791 789 787 785 784 783 783 781 776 774 772 772 773 768 762 761 760 759 759 758 758 758 758 759 759 759 758 758 761 762 762 764 765 766 770 772 768 767 771 773 775 779 774 766 763 762 764 766 768 771 774 773 772 770 767 765 760 760 767 764 762 770 765 757 761 759 754 750 745 745 751 754 752 752 753 750 748 747 748 752 754 755
796 795 794 793 792 791 790 788 786 784 783 783 783 780 776 777 778 778 777 769 759 759 759 757 758 758 757 758 759 760 762 761 759 757 759 761 761 762 762 764 768 768 765 767 773 778 780 777 767 760 761 765 768 769 772 775 776 775 772 771 769 762 758 761 765 764 763 769 765 758 762 760 752 748 744 743 748 749 747 747 748 747 747 746 745 747 750 753
795 793 793 792 791 790 788 786 785 783 783 783 783 780 778 780 780 780 780 773 761 755 755 756 757 756 755 756 757 760 762 760 758 754 755 759 759 758 760 763 763 762 766 770 771 775 777 769 759 759 764 770 773 773 774 776 775 775 772 772 769 761 764 769 766 764 764 765 765 762 763 760 752 748 744 741 742 743 743 743 742 742 743 743 742 743 746 751
794 793 792 791 790 789 786 785 783 782 783 783 782 781 780 780 780 780 778 770 760 754 753 755 754 753 753 754 755 757 757 755 754 751 751 756 756 756 758 758 759 762 764 765 765 768 766 760 757 761 766 770 774 775 776 778 775 771 770 771 767 761 766 769 763 763 763 761 763 765 768 760 748 747 743 737 740 742 741 743 743 742 741 740 740 740 742 746
793 792 791 790 789 786 785 784 782 783 783 781 780 780 780 780 779 780 777 767 758 753 753 754 754 753 752 753 754 753 753 753 751 748 748 751 752 754 755 753 756 762 761 760 764 765 760 758 761 765 767 767 771 774 773 776 774 769 765 765 765 763 766 766 763 768 770 765 760 764 775 762 740 740 741 736 741 742 740 743 744 743 742 741 741 739 739 742
792 791 790 789 787 785 784 782 782 783 781 779 779 778 779 780 777 779 776 764 755 750 751 753 752 752 751 752 753 751 754 753 747 747 749 749 749 750 755 754 754 757 755 756 762 763 758 758 761 765 768 768 770 771 768 770 774 770 761 759 763 763 764 765 765 772 773 766 758 760 772 766 744 739 739 736 740 740 739 745 745 744 743 741 740 738 737 739
791 790 789 788 787 785 783 781 782 782 778 777 778 778 779 778 777 779 774 765 756 748 749 751 750 751 750 749 750 752 755 751 746 747 748 748 747 748 754 755 756 756 752 758 767 762 757 762 764 765 769 770 771 770 764 766 774 770 758 759 762 761 764 765 766 770 764 758 760 757 761 768 757 741 733 736 741 738 739 746 746 745 744 742 740 737 736 738
790 789 788 787 787 786 785 783 783 780 778 777 777 778 778 776 777 776 771 769 759 746 746 748 748 749 748 749 750 748 749 747 748 749 745 747 748 749 755 752 752 755 752 760 768 758 754 763 765 765 770 770 767 763 760 765 772 764 757 761 761 760 763 761 763 765 760 764 769 756 755 770 762 737 730 738 740 737 740 747 747 745 744 743 741 738 736 738
789 788 787 786 785 784 784 784 782 780 778 778 777 777 776 776 777 770 769 769 756 744 747 747 748 749 746 748 750 747 746 745 747 748 745 748 747 748 753 748 746 751 752 756 757 753 754 758 758 760 765 764 760 756 755 763 767 760 758 762 761 761 762 761 763 760 763 776 774 753 752 768 761 736 730 739 739 738 743 746 744 743 743 742 741 739 736 738
787 786 786 785 784 783 783 782 780 778 778 777 777 776 775 776 772 769 773 768 752 747 747 745 747 748 745 745 746 746 747 745 744 745 747 748 748 748 748 746 745 749 753 754 752 752 754 756 755 756 757 755 753 753 754 759 760 759 761 762 762 762 760 762 761 758 770 781 767 749 749 763 764 742 731 741 745 744 747 746 745 744 742 742 741 739 737 739
785 784 784 784 784 784 782 779 777 776 777 777 776 775 775 771 766 768 772 761 750 748 747 747 749 746 745 746 745 743 744 744 742 745 749 748 749 751 750 750 751 754 758 759 755 752 755 759 757 753 751 752 754 756 757 757 758 762 764 761 764 766 765 767 765 767 781 778 759 749 748 760 767 748 735 744 746 744 747 748 748 747 742 741 741 738 737 740
782 782 782 782 782 782 780 777 775 776 776 776 776 773 770 770 768 766 760 753 754 753 748 751 751 746 746 746 745 742 741 743 742 742 745 746 749 750 749 750 752 759 765 761 757 755 755 755 752 750 749 751 756 758 759 760 761 764 764 764 770 773 776 779 775 775 777 767 756 752 752 761 759 744 740 744 744 744 746 746 747 747 743 741 741 739 739 741
780 779 778 778 778 778 777 775 776 776 775 775 775 769 766 770 770 762 752 751 758 756 751 754 752 747 747 744 743 740 738 741 741 739 738 740 745 746 743 741 741 751 757 754 756 760 759 752 747 750 750 748 753 756 760 762 762 764 764 765 770 773 782 787 777 771 769 762 757 751 756 763 751 741 745 745 745 746 745 745 747 747 745 744 742 741 742 742
776 775 775 774 775 774 774 774 775 774 775 775 770 767 771 772 765 760 756 753 756 756 753 754 752 748 745 743 742 740 740 742 738 738 739 739 744 745 743 742 739 741 746 750 755 756 761 758 748 748 747 743 748 750 749 749 752 756 752 752 759 761 772 779 771 766 765 762 761 759 762 760 750 750 748 742 744 745 745 747 748 749 748 746 746 745 745 745
773 772 772 772 772 771 771 773 773 773 774 771 766 767 772 768 759 758 759 755 756 757 753 751 751 749 743 742 742 740 742 744 738 737 739 738 742 742 740 742 740 739 744 754 756 751 757 755 739 738 740 738 743 743 739 745 751 749 742 749 757 749 752 765 767 765 764 763 763 762 757 744 742 749 743 740 744 745 748 749 748 752 751 748 750 750 749 749
771 771 770 770 771 770 769 771 771 773 772 767 765 766 765 761 758 758 760 760 760 760 756 751 749 749 744 741 742 740 740 742 739 738 738 736 736 735 735 736 736 737 740 747 752 752 757 752 735 737 742 737 738 737 736 745 751 750 750 753 747 736 741 759 770 768 769 773 764 756 752 739 739 748 741 740 745 745 749 750 749 753 753 752 753 751 750 751
771 771 769 770 770 769 768 769 770 773 770 764 765 766 761 761 762 760 761 763 762 762 759 755 751 751 750 745 742 741 739 740 740 740 739 738 737 735 734 733 733 735 734 737 744 746 750 751 738 737 744 739 736 738 736 737 741 750 754 745 736 738 743 752 767 769 770 774 762 752 755 746 743 753 750 744 747 748 750 750 751 753 754 754 754 751 753 755
772 770 768 768 769 768 768 769 770 770 767 764 766 767 763 762 763 762 763 763 763 763 760 757 755 754 752 749 745 742 741 741 739 739 740 740 741 738 736 735 735 734 731 733 742 743 746 753 744 733 739 739 736 743 746 739 737 742 745 737 738 755 757 752 764 770 769 774 765 753 753 746 741 750 753 750 749 750 751 750 751 752 754 755 753 752 756 758
771 767 766 768 769 768 768 770 770 767 765 764 764 765 764 763 763 764 764 764 764 763 760 758 757 755 753 751 748 744 744 742 738 740 742 741 744 744 738 736 737 737 735 735 741 742 743 755 753 736 735 739 738 744 748 744 740 740 742 738 738 749 753 748 751 755 761 769 766 758 755 748 743 744 747 749 749 751 755 753 752 754 755 754 753 754 758 760
769 764 765 768 769 768 769 770 768 764 763 763 761 762 764 764 763 763 763 764 763 762 761 760 759 758 755 751 749 748 747 744 740 742 743 739 744 749 742 739 739 739 739 738 740 741 743 755 757 741 735 741 743 740 739 739 740 743 747 748 744 743 743 743 742 740 747 757 760 762 759 751 750 747 744 749 752 754 756 756 757 759 757 754 754 756 759 760
765 762 765 769 768 769 769 767 765 762 761 762 762 763 765 765 763 762 762 764 763 760 761 761 759 758 757 754 752 750 748 744 741 743 744 739 743 750 747 745 744 740 740 741 741 742 745 752 755 746 741 743 740 734 733 734 735 738 741 741 741 741 743 755 756 741 739 746 750 757 758 754 757 754 748 752 756 756 756 758 761 762 760 759 758 760 761 761
763 762 766 768 768 769 767 763 763 763 760 761 763 764 767 767 765 763 762 763 763 760 760 761 759 758 758 756 754 752 750 747 742 744 746 743 745 750 748 747 746 742 741 741 740 741 744 748 752 749 742 739 736 734 736 738 735 737 738 734 734 736 739 756 763 748 741 743 742 748 754 757 764 762 756 759 762 760 758 759 760 762 764 766 765 765 766 766
760 762 767 768 768 768 766 762 763 763 762 764 766 765 767 767 765 764 763 762 762 761 761 761 759 758 758 757 756 754 753 751 747 746 747 746 747 750 748 747 747 743 740 741 742 744 748 750 752 750 741 734 736 736 737 739 739 739 740 738 740 739 736 745 752 746 744 744 745 752 755 759 768 767 761 763 765 765 765 764 765 767 770 770 769 770 770 771
758 762 766 767 768 767 764 762 762 763 764 766 766 765 766 766 765 764 763 763 762 761 762 761 759 759 758 758 758 755 754 756 752 747 747 747 749 751 748 747 746 744 745 748 747 749 753 753 752 755 753 747 747 747 745 744 742 741 743 746 747 742 739 743 744 743 747 744 744 751 756 762 768 765 761 763 768 773 775 774 775 775 775 774 773 774 775 775
759 763 764 766 767 766 764 763 762 763 766 767 767 766 766 765 766 766 764 764 762 762 763 761 759 760 758 757 758 754 754 757 756 750 748 748 749 750 750 749 748 749 752 753 749 749 755 758 756 758 760 758 759 760 757 749 743 744 747 751 752 748 747 748 744 746 751 744 739 744 752 764 770 764 764 768 772 778 781 781 781 780 779 779 779 781 781 780
757 762 765 766 766 764 764 765 764 763 765 767 768 768 766 765 765 766 765 764 763 762 763 761 760 760 759 758 759 757 753 754 756 753 751 750 750 751 753 752 752 755 756 754 750 749 755 762 763 763 763 762 763 765 759 748 744 750 753 753 756 755 754 751 747 750 751 745 741 739 743 760 769 764 766 774 778 782 784 785 785 783 784 785 785 786 786 786
756 758 761 764 765 764 764 764 763 764 765 766 768 769 767 765 765 765 765 764 763 763 763 762 761 762 763 763 763 761 756 754 755 756 755 753 749 750 753 755 758 762 759 752 750 752 757 761 763 768 770 768 765 762 757 751 750 756 759 759 759 758 756 754 753 755 754 752 753 745 739 752 765 765 769 778 783 787 789 791 791 788 788 789 789 789 789 790
757 758 759 761 762 762 763 763 763 765 766 766 768 770 767 765 766 767 765 763 762 763 764 765 764 763 764 765 765 764 760 758 759 760 759 757 754 752 752 755 761 764 760 754 751 756 763 762 759 766 773 772 768 762 756 756 758 761 764 766 763 760 759 759 759 760 758 757 761 758 751 758 772 780 783 785 788 792 795 795 795 794 793 792 792 792 793 794
757 758 761 763 761 761 764 767 765 766 767 767 768 769 768 766 767 767 765 764 765 763 763 767 768 765 764 763 763 765 765 764 765 766 764 764 764 761 758 758 759 758 761 762 758 759 767 764 757 761 771 774 773 768 761 759 763 768 771 772 769 766 766 766 766 766 761 757 759 763 769 780 790 795 795 794 794 796 797 797 797 797 797 797 797 798 798 798
757 757 761 763 762 764 767 768 766 765 767 769 768 769 769 767 768 768 767 767 769 767 765 768 768 766 766 765 762 765 768 767 769 770 769 768 768 765 766 767 764 762 767 773 771 769 768 765 758 757 764 771 773 771 766 762 765 772 778 779 777 775 774 775 778 778 768 762 764 769 779 792 798 797 798 800 799 799 800 801 801 801 802 802 802 803 802 802
759 759 759 759 762 768 768 767 766 764 765 767 769 770 770 768 769 770 768 767 768 768 767 768 767 767 769 769 765 764 766 767 769 769 769 769 767 765 767 768 766 767 771 775 781 779 771 771 770 760 759 769 771 769 771 770 768 773 784 793 792 787 786 786 788 789 782 774 773 771 775 789 799 800 802 804 804 804 806 807 807 807 806 806 806 807 806 805
761 761 759 756 762 769 767 765 765 764 765 769 771 771 772 770 770 770 771 769 767 766 767 768 768 767 767 768 768 767 767 768 768 768 767 768 767 765 765 763 762 765 768 772 778 778 772 773 774 764 763 772 770 766 772 775 773 780 796 808 806 799 797 793 790 794 795 789 781 775 780 794 801 800 804 809 811 812 812 812 811 811 810 810 810 810 810 809
Wind_Speed
8 8 8 8 8 8 8 8 7 7 7 8 8 9 9 9 8 8 7 7 7 8 8 8 9 9 9 10 10 12 14 14 11 9 9 4 2 5 5 4 11 16 17 16 16 15 14 12 11 11 9 7 5 5 7 6 4 5 5 6 6 7 3 2 1 2 3 3 5 8 8 9 9 7 8 3 1 3 3 4 5 5 5 6 11 19 23 22
8 8 7 8 8 8 8 7 7 7 7 7 8 8 9 9 9 8 8 7 7 8 8 8 9 9 9 9 10 12 14 12 12 10 8 2 5 4 4 6 12 18 20 17 18 17 14 12 13 12 8 6 5 6 8 6 6 7 5 6 7 3 3 4 2 3 3 5 7 8 7 9 8 7 8 6 3 2 4 5 5 6 8 9 15 20 21 21
8 8 8 8 8 8 8 8 8 7 7 8 8 8 9 9 9 8 8 8 8 8 8 9 9 8 8 9 10 12 12 11 9 4 5 1 8 6 6 11 14 20 19 15 16 14 11 11 14 12 7 5 5 6 8 7 7 7 5 7 4 1 3 2 1 2 3 6 7 8 8 8 6 6 7 8 6 1 4 4 6 8 9 11 15 18 20 21
9 9 8 8 9 8 9 9 9 8 8 8 8 9 9 9 9 9 9 9 8 8 9 9 10 9 7 8 9 10 9 9 3 6 3 4 9 6 9 14 17 20 14 10 12 10 7 10 13 11 7 6 5 6 8 7 7 5 6 7 1 2 1 3 2 2 5 6 7 8 9 8 7 7 7 8 7 2 4 3 6 8 12 14 15 17 19 20
9 9 9 9 9 9 9 10 10 9 9 9 9 9 10 10 10 10 10 9 9 9 10 10 10 9 7 6 8 7 6 5 3 5 2 7 8 2 12 16 19 18 10 9 11 9 8 11 11 9 7 5 7 7 8 9 7 4 8 8 1 1 4 2 2 5 6 7 7 8 9 7 8 9 6 7 7 2 2 1 4 8 12 15 16 17 18 18
9 9 9 9 9 10 10 10 10 10 10 9 9 9 10 10 10 11 11 10 9 9 10 10 11 9 6 5 5 4 6 2 3 1 6 8 4 6 14 18 20 15 10 11 11 10 10 11 10 8 7 6 8 8 6 9 8 7 7 8 5 6 6 3 6 7 7 9 8 8 8 7 10 8 5 6 7 5 4 3 1 7 12 14 16 16 16 17
9 9 9 9 10 10 11 11 11 11 10 10 10 10 10 11 11 12 11 11 10 10 10 10 10 9 6 5 3 5 7 3 3 4 9 5 3 11 15 20 19 12 11 12 11 11 10 11 10 7 7 6 8 8 6 9 10 10 6 5 6 6 8 7 8 8 8 10 8 8 9 8 10 7 5 7 7 5 4 2 3 9 11 13 15 15 15 16
10 9 9 9 9 10 11 11 11 11 11 11 11 11 11 11 12 12 12 12 11 10 10 10 10 8 6 3 4 6 6 1 4 5 7 1 9 13 17 20 16 10 11 12 10 10 9 11 10 6 7 5 5 8 8 9 10 12 9 4 6 6 7 8 8 9 9 9 8 8 10 9 8 8 9 9 5 3 2 3 7 11 12 13 14 14 14 14
10 10 10 9 10 10 11 11 11 11 11 11 12 12 12 12 12 12 12 12 12 11 11 11 8 7 5 3 6 6 1 5 5 4 2 7 13 16 18 18 15 9 10 9 7 9 8 9 9 5 5 2 5 8 9 9 7 9 11 7 7 8 7 7 8 10 9 7 6 9 12 8 4 7 8 5 1 0 2 6 9 11 12 13 13 14 13 13
11 11 10 10 10 10 11 11 11 12 11 12 12 12 13 13 13 13 13 13 12 12 11 10 7 5 3 4 6 4 4 5 4 6 4 11 15 17 15 14 14 10 8 7 6 8 6 5 6 3 4 2 6 7 9 9 1 2 8 7 8 9 7 7 8 9 9 8 8 10 11 6 3 6 5 3 3 2 5 7 10 11 12 12 12 13 12 12
11 11 11 11 11 11 11 11 12 12 12 13 13 13 13 13 14 14 14 13 13 12 10 9 4 2 3 5 6 3 5 5 3 5 5 13 17 14 10 12 13 8 6 6 6 7 4 3 5 4 2 3 6 6 9 7 3 2 5 6 8 8 7 8 8 8 7 8 8 9 11 7 5 9 5 3 2 4 6 8 10 10 11 12 12 12 11 11
11 12 11 11 11 11 12 12 12 12 13 13 13 14 14 14 15 15 15 14 13 12 9 7 2 1 4 6 6 3 4 4 4 5 7 13 14 10 8 10 10 6 4 4 4 5 4 3 7 7 1 4 6 5 6 5 4 5 6 7 8 8 9 8 7 7 7 6 4 5 9 9 10 10 4 3 2 5 7 8 10 10 10 11 12 11 10 11
12 12 12 12 11 11 12 12 12 13 13 14 14 15 15 16 16 16 15 14 11 10 8 5 1 1 5 5 2 3 4 5 5 7 9 10 11 8 6 7 7 5 3 2 1 3 4 3 8 7 1 4 5 3 2 5 5 6 6 7 5 7 7 6 4 5 6 3 1 5 7 6 10 8 3 4 5 7 8 8 9 9 9 10 11 10 10 11
12 12 12 12 12 12 12 13 13 14 14 14 15 16 17 15 14 13 13 12 9 8 7 4 3 4 5 4 2 4 6 6 6 8 10 10 11 8 6 5 6 6 3 2 2 1 4 4 7 5 2 5 1 3 4 6 6 5 5 5 5 6 4 7 3 3 4 2 3 8 6 4 7 7 5 4 6 8 9 9 9 9 8 9 10 10 10 11
13 13 13 13 13 13 13 14 14 14 15 15 15 17 16 11 9 10 8 7 5 6 6 4 5 5 5 5 3 3 6 7 8 11 11 12 12 8 7 7 6 6 5 3 2 1 4 6 6 5 4 3 1 5 7 5 6 5 4 5 5 5 3 7 4 1 1 3 4 8 6 6 5 8 6 4 6 8 9 9 10 10 10 10 10 11 10 11
13 13 13 13 13 13 13 14 15 15 15 15 16 16 11 6 5 7 4 0 2 6 7 5 6 6 6 2 4 2 5 7 5 8 11 13 13 9 7 9 7 7 6 4 3 2 5 8 5 3 4 5 5 7 5 5 6 6 6 5 4 4 3 5 6 3 2 1 4 6 6 5 4 7 5 4 5 8 8 9 11 10 10 10 10 10 10 11
14 14 14 14 14 13 14 14 15 16 15 15 16 12 6 4 3 3 2 4 4 6 6 4 4 6 4 2 4 3 5 6 5 6 8 10 12 10 10 10 8 9 8 6 4 4 7 8 4 2 4 6 6 6 6 7 7 6 6 5 3 4 3 2 6 6 2 3 3 4 6 7 3 5 5 4 6 7 8 9 11 10 10 10 10 10 10 11
14 14 14 14 14 14 14 14 15 15 16 16 13 6 4 4 2 2 2 4 4 5 5 4 4 6 3 4 2 2 7 6 4 5 5 7 10 12 11 9 9 11 9 7 6 6 7 6 5 5 6 6 6 7 8 5 4 5 6 5 4 5 5 4 3 3 1 5 5 6 7 9 9 7 6 6 6 8 8 9 9 11 12 12 11 11 11 12
15 15 15 15 14 15 15 15 16 15 16 14 9 4 3 3 2 3 4 4 4 4 3 3 6 4 1 4 1 3 4 1 1 4 6 9 11 12 10 9 10 11 9 7 7 8 6 5 6 6 7 9 9 10 10 3 3 3 3 4 4 4 5 4 1 0 2 6 7 9 9 9 11 9 7 8 7 8 8 8 9 10 12 12 12 11 11 12
15 15 15 15 15 15 15 16 15 15 16 12 7 4 4 3 3 4 4 6 8 8 9 4 7 9 4 2 1 2 4 3 3 5 8 10 13 13 10 10 10 9 8 7 7 7 6 6 7 8 9 11 12 12 10 4 2 3 3 5 6 6 5 2 2 2 3 6 7 8 10 11 11 12 9 8 8 8 9 10 10 10 12 12 12 12 12 13
15 15 15 15 16 15 15 16 15 15 14 8 4 5 2 3 3 1 1 6 9 10 12 9 9 11 6 2 1 1 2 4 5 5 8 11 14 12 11 11 10 9 9 7 6 6 6 7 8 10 9 7 8 10 7 4 4 6 6 6 6 7 5 3 2 3 2 4 7 6 8 10 11 14 12 8 9 10 11 11 11 12 13 12 13 14 14 12
15 15 15 16 16 16 16 16 15 14 9 2 3 5 2 5 4 4 4 6 7 7 10 9 9 9 8 9 6 1 3 6 7 7 9 11 14 11 10 12 12 9 9 7 5 5 7 9 11 10 5 3 5 6 7 7 7 7 6 7 7 6 4 2 3 3 3 3 5 6 7 8 11 14 14 11 10 10 11 12 13 14 14 14 14 14 13 13
16 15 15 15 16 16 15 15 15 11 3 1 5 5 1 4 4 3 4 6 6 5 6 6 6 7 8 10 9 8 8 10 10 11 13 12 12 10 9 12 13 10 10 10 8 7 6 6 9 8 6 6 7 6 8 7 7 7 6 6 6 4 3 3 5 5 3 5 7 9 8 8 11 12 14 13 11 10 11 12 13 14 14 15 14 12 12 14
16 15 16 16 16 17 15 14 12 4 2 5 8 4 1 3 4 4 4 6 5 3 2 2 4 5 3 1 7 12 11 9 9 10 15 15 10 8 10 12 13 10 9 12 12 10 5 2 3 7 8 9 9 8 9 7 6 8 8 8 8 5 5 5 4 3 6 8 8 9 8 8 10 13 13 10 10 11 10 11 12 12 13 14 14 14 14 15
15 15 16 16 16 16 14 10 4 2 5 8 5 4 1 4 5 4 5 5 3 3 3 4 3 2 2 2 6 9 7 8 9 7 14 17 12 8 9 9 9 10 11 13 12 10 6 6 5 8 9 12 11 9 10 9 7 8 9 11 11 10 9 10 8 5 7 7 7 6 7 6 7 10 10 7 9 11 9 8 9 9 11 13 14 15 15 15
15 15 15 15 16 16 11 4 1 3 8 4 4 4 2 6 5 4 4 4 2 4 4 5 3 3 3 3 6 6 5 6 6 7 11 15 14 8 7 7 6 9 10 10 7 6 5 6 7 8 8 11 11 9 10 9 8 7 4 6 9 11 11 9 7 5 6 4 4 5 7 5 5 7 9 8 8 10 8 5 4 4 7 11 13 14 15 14
14 14 15 13 14 14 8 3 4 7 6 2 5 3 5 7 4 4 4 4 2 2 3 3 2 3 1 2 7 6 2 4 5 9 11 12 13 8 7 8 7 7 5 5 4 4 6 7 8 8 8 9 9 7 8 9 9 4 2 1 7 8 8 7 7 7 5 3 3 7 7 6 7 7 8 8 9 11 8 4 1 1 4 8 11 13 14 13
14 14 14 12 12 11 7 7 8 7 2 3 2 4 6 5 4 4 5 3 2 1 1 2 3 2 1 2 8 7 2 1 3 8 10 12 12 8 9 11 10 9 8 7 4 4 8 10 10 11 10 7 7 7 6 8 9 5 2 1 5 4 5 6 6 6 4 3 6 9 8 7 8 6 7 8 12 12 7 3 1 1 3 5 8 11 12 12
15 14 13 13 13 9 6 8 9 5 1 0 3 6 6 3 5 4 4 2 2 1 1 2 3 3 1 2 8 8 5 3 1 4 8 10 10 6 7 9 11 10 11 11 7 3 6 5 7 10 10 7 9 10 8 9 9 4 1 4 4 4 4 5 5 5 4 5 8 9 9 7 7 7 7 8 10 7 2 2 2 3 4 4 5 8 10 11
15 14 13 13 11 7 5 9 12 9 4 4 4 6 4 5 4 4 4 1 1 3 2 1 2 2 4 2 6 7 6 5 2 5 8 9 10 7 3 3 7 7 9 10 9 2 6 2 2 7 8 6 7 7 7 10 8 2 3 7 6 5 4 4 5 4 4 7 10 8 8 7 8 7 3 2 2 2 3 3 4 5 4 1 4 7 9 9
16 15 12 11 8 4 4 5 5 6 5 3 4 4 5 4 3 4 3 0 1 2 3 2 1 3 6 4 2 4 6 6 6 8 8 8 11 10 6 4 6 6 6 8 9 6 7 5 4 6 7 5 4 4 4 7 7 5 6 7 6 5 4 5 5 4 7 8 5 4 6 8 9 5 1 4 2 3 4 4 6 6 3 1 4 6 8 8
17 16 14 13 10 9 9 4 1 2 3 4 4 4 6 4 4 4 2 1 1 1 2 2 3 5 6 4 2 2 4 6 8 9 8 9 10 9 10 8 7 8 7 7 8 8 8 8 8 7 7 7 7 5 6 6 7 7 7 7 7 6 5 6 7 6 8 5 3 3 5 7 9 3 3 4 3 4 4 4 5 5 3 2 3 6 7 8
18 18 17 14 12 14 14 9 7 8 7 6 4 5 5 4 3 2 1 1 1 3 3 3 5 7 7 5 1 1 3 5 9 9 8 10 11 10 13 12 10 10 6 7 9 7 7 9 11 10 8 10 10 7 6 7 8 9 8 7 8 7 6 7 7 7 8 4 4 3 3 7 9 1 5 4 4 5 4 4 4 4 4 3 4 5 7 8
20 18 16 11 11 15 13 9 9 8 6 6 6 5 5 5 1 1 1 0 3 3 3 4 6 7 6 3 2 2 3 5 8 9 8 9 9 9 11 11 13 11 5 6 7 6 8 7 9 12 8 10 14 11 8 6 7 10 9 8 8 7 6 6 6 6 7 3 3 4 4 6 7 1 4 3 4 4 4 4 3 2 2 3 4 5 6 7
18 13 10 7 8 11 11 11 8 5 4 6 6 5 6 4 1 1 1 1 3 3 4 5 6 6 4 3 1 2 1 2 6 8 7 8 8 8 9 10 13 12 7 6 4 5 9 5 7 9 4 7 14 14 11 9 6 7 7 8 8 7 6 4 2 2 3 3 3 5 4 4 1 3 2 1 3 3 3 2 2 2 2 3 4 5 6 6
12 6 4 4 4 4 8 12 10 6 6 5 6 6 4 0 1 1 2 3 2 5 7 5 4 5 3 4 3 1 0 2 5 7 6 7 7 7 8 8 12 14 10 6 4 4 7 4 6 8 5 8 10 10 12 12 6 5 6 8 6 5 6 4 1 2 1 6 4 4 6 4 3 4 3 3 4 2 2 1 2 4 3 3 3 4 5 4
9 5 2 3 2 2 6 11 11 7 6 5 6 4 1 1 2 2 2 3 2 3 7 4 1 2 2 3 3 2 0 3 6 6 6 6 4 5 8 7 9 14 13 9 5 4 6 4 7 8 8 8 5 4 9 11 7 5 5 6 4 3 5 5 4 3 5 7 4 4 7 6 4 2 2 4 4 2 1 2 3 4 3 2 2 3 4 6
8 5 2 4 2 3 7 11 10 6 5 5 5 1 0 1 1 1 1 2 2 2 5 3 1 1 2 2 1 1 2 3 5 5 6 6 3 2 6 7 7 10 11 9 6 3 4 5 6 6 5 7 7 5 7 9 10 8 4 3 3 4 6 6 6 6 6 7 5 5 7 7 5 2 4 5 3 2 2 2 3 3 3 2 2 5 7 7
7 5 3 4 2 5 9 9 7 5 4 5 5 2 1 1 2 1 1 1 3 3 3 2 1 2 2 3 2 2 3 3 2 4 5 6 4 0 3 4 6 7 6 8 6 3 4 6 4 5 4 6 7 7 7 8 10 9 6 5 5 4 5 5 5 6 6 6 6 5 5 3 1 1 3 4 2 2 2 2 2 3 3 2 3 5 6 5
5 4 3 4 1 7 7 5 5 4 4 3 2 2 2 1 2 2 2 2 3 3 2 1 1 2 2 3 2 2 2 4 3 3 4 4 5 2 1 1 2 4 5 8 8 5 4 5 4 5 7 6 6 6 6 6 8 9 8 8 7 5 4 4 4 5 5 6 5 5 5 2 4 4 3 4 4 3 2 2 3 3 2 2 3 5 4 4
4 4 3 2 3 6 3 4 3 2 3 1 0 2 2 1 1 2 2 3 4 3 2 4 4 3 3 3 1 2 4 4 2 2 3 4 4 2 2 4 3 1 4 7 8 6 5 5 6 5 6 7 5 3 1 2 3 6 7 8 8 7 5 5 6 6 6 6 4 5 5 2 4 3 2 4 3 2 2 2 3 3 3 3 4 5 4 4
4 3 3 3 4 2 4 3 2 1 2 1 0 1 1 1 1 1 2 3 5 3 2 4 5 4 4 3 2 3 4 4 2 1 2 1 2 3 4 5 5 4 3 4 4 2 1 3 6 7 7 5 4 7 4 2 1 4 6 6 6 7 7 7 7 5 5 6 4 5 6 1 3 2 1 3 2 2 2 3 4 5 6 6 6 8 8 9
3 3 4 5 3 2 5 2 3 2 1 2 1 0 0 1 1 1 2 3 4 3 3 3 3 3 2 2 3 4 3 3 3 1 2 1 4 6 7 6 3 5 4 2 3 3 1 4 6 7 7 4 5 6 4 2 3 5 4 2 4 6 5 5 6 4 4 6 5 6 6 1 2 1 2 3 2 3 4 4 4 7 8 7 7 8 9 9
4 4 4 5 1 4 4 1 2 2 3 2 1 3 2 1 1 1 1 1 1 2 3 3 2 2 2 2 4 5 4 3 2 0 1 1 3 5 7 7 3 1 1 2 1 2 3 5 6 6 7 7 6 6 6 5 5 4 2 1 2 5 5 6 6 6 6 7 7 7 4 2 3 2 3 4 5 7 8 9 8 8 7 6 7 8 9 8
4 3 4 4 2 3 1 1 1 1 3 2 2 3 2 3 1 2 1 1 1 1 2 2 1 2 3 3 4 4 3 2 2 1 1 0 2 4 6 8 7 6 8 8 2 4 2 2 4 7 8 8 7 5 4 4 5 3 3 3 3 3 4 5 5 7 7 7 8 8 3 3 4 3 4 5 7 8 9 8 8 7 7 7 7 8 8 8
4 3 3 4 2 1 1 1 2 0 2 2 2 2 1 3 4 1 1 0 2 1 1 2 1 3 3 4 4 4 2 2 3 2 2 1 1 3 5 6 8 11 14 9 1 4 2 1 2 5 5 3 2 2 3 2 3 4 3 4 4 4 3 5 5 5 5 5 7 6 4 7 6 6 7 7 7 7 7 7 7 7 8 8 8 8 8 8
3 3 3 3 3 2 2 2 1 1 1 1 1 1 0 2 3 2 1 1 2 1 1 2 2 1 1 3 3 3 3 2 2 1 2 3 2 1 3 5 6 11 14 6 2 3 3 4 5 4 3 4 5 4 4 3 2 4 4 4 5 6 3 4 4 2 4 5 5 2 6 10 7 5 6 8 7 6 7 7 6 6 7 8 8 8 9 9
1 1 2 1 1 2 2 2 2 2 2 1 0 1 1 2 2 2 1 1 1 0 2 1 2 3 3 4 3 3 3 2 1 2 2 4 4 1 2 7 5 6 9 7 2 1 3 4 7 7 2 2 4 3 3 4 6 7 7 6 6 7 5 2 2 5 6 2 2 1 4 8 8 7 7 8 8 7 7 7 6 7 8 8 8 9 10 10
0 3 2 3 1 3 4 3 3 3 3 1 1 1 1 2 2 1 1 1 2 1 2 0 2 3 3 3 3 2 2 2 1 3 4 5 4 2 0 4 5 6 9 8 6 4 2 3 7 9 6 4 2 2 2 4 7 9 9 8 7 6 6 6 6 7 6 3 3 4 8 10 8 7 7 8 7 7 7 7 8 8 9 9 9 9 10 10
1 2 2 1 3 4 4 3 2 3 3 0 1 2 1 1 2 2 1 1 1 1 2 1 2 2 3 3 3 1 2 2 1 3 6 5 2 3 3 1 2 7 7 4 5 6 3 2 5 8 7 6 5 4 3 4 7 10 10 9 8 5 6 6 7 6 5 2 5 6 8 7 5 5 7 7 6 7 8 9 9 9 9 9 10 10 10 10
2 2 0 3 4 3 2 3 1 2 3 1 1 2 1 1 3 3 1 0 1 2 3 3 2 1 1 2 3 1 2 2 3 4 6 5 3 3 3 1 2 3 4 2 1 4 4 1 1 6 6 5 5 7 6 4 5 8 10 12 10 7 6 5 5 6 6 4 2 4 4 4 3 5 8 7 8 9 10 10 9 9 9 9 10 10 10 11
0 0 2 2 3 2 2 3 2 2 2 2 2 1 0 2 3 3 0 2 1 2 3 3 3 2 1 1 2 4 4 4 5 6 5 4 3 3 3 3 3 2 1 1 2 1 1 1 2 5 4 5 6 7 6 4 3 2 6 9 8 7 7 5 4 6 9 7 3 1 3 5 5 5 7 8 9 9 9 9 8 8 9 10 10 11 11 11
Wind_Direction
357 1 1 356 352 349 345 344 344 344 340 336 333 330 325 324 323 321 323 321 321 316 314 314 312 320 323 324 320 316 320 315 301 277 253 253 290 242 242 201 183 169 159 155 160 164 162 174 168 171 182 174 200 172 173 199 193 207 221 230 233 236 236 95 123 14 353 5 9 349 358 339 339 2 356 318 238 56 100 104 108 103 75 92 115 132 144 150
356 1 3 356 352 347 342 341 341 340 337 337 332 328 326 322 321 319 318 317 315 312 312 315 318 331 330 327 322 320 324 304 282 267 233 238 353 295 213 181 182 169 161 165 172 171 169 174 167 176 187 174 185 163 171 185 197 221 225 232 238 253 37 58 41 35 348 336 344 335 345 332 334 353 341 328 357 81 149 121 128 128 108 118 129 139 146 153
357 359 1 355 351 345 341 339 338 339 337 336 331 327 324 321 320 316 316 314 312 314 317 321 325 337 335 327 324 325 324 295 269 226 189 285 340 315 199 175 176 170 168 180 181 179 181 171 169 181 188 184 183 176 186 180 194 225 232 239 240 77 57 80 90 30 337 333 325 325 331 316 333 343 325 329 329 200 159 138 157 157 142 144 144 148 154 159
357 356 359 355 350 345 341 340 337 338 336 335 332 327 325 322 319 316 316 312 312 318 323 327 329 342 342 325 326 329 309 276 235 117 129 313 326 304 191 173 171 171 173 192 187 187 187 170 175 187 194 191 173 186 194 175 190 215 225 250 333 80 210 144 155 314 321 320 313 315 311 305 334 325 307 322 317 142 131 158 172 171 160 158 159 161 163 164
354 354 357 353 349 345 341 340 337 336 335 334 331 328 326 321 318 315 313 311 313 319 324 327 333 346 344 324 327 321 281 261 110 100 320 316 323 255 178 170 167 171 178 186 178 179 179 172 178 188 203 193 167 189 197 185 208 230 225 247 308 264 251 148 242 299 312 301 299 299 304 322 325 303 303 320 315 34 61 141 168 171 167 166 167 167 167 167
350 353 355 352 349 344 341 339 336 335 332 331 328 325 323 319 317 313 310 311 310 314 321 326 336 348 348 332 324 279 264 290 70 347 313 322 325 158 167 164 162 170 178 173 168 174 174 173 181 190 205 199 183 194 191 185 211 240 226 231 234 249 263 269 283 290 295 289 292 298 311 326 304 298 324 314 303 325 338 321 168 159 166 169 167 169 171 172
347 351 352 352 349 344 342 338 335 334 330 328 326 323 321 318 315 311 310 308 307 310 315 322 334 348 356 335 286 234 255 300 49 324 317 320 149 152 162 157 157 166 175 173 169 176 173 179 192 194 204 203 195 195 185 189 208 238 239 224 234 249 259 271 282 281 285 286 292 299 302 300 290 305 325 301 299 309 309 277 174 151 162 169 167 173 177 177
343 346 349 350 348 345 341 337 334 331 329 327 324 322 319 317 313 309 308 306 306 306 308 318 332 349 0 329 270 252 249 16 49 323 318 146 149 155 157 156 162 170 180 183 175 184 180 187 196 196 212 203 192 191 181 200 212 231 246 244 245 251 255 266 273 275 281 282 288 289 285 282 288 310 300 289 305 315 280 203 163 154 163 169 171 176 179 180
340 342 346 348 347 345 340 336 332 329 329 327 324 321 318 316 312 308 305 304 302 301 304 312 328 357 2 295 276 275 165 74 48 355 8 144 150 153 151 158 175 180 183 187 185 196 188 196 197 196 241 206 184 191 183 210 214 219 239 248 255 260 262 269 270 274 276 274 283 281 277 274 295 310 280 262 323 60 188 176 161 159 166 170 173 176 180 183
338 339 343 346 345 342 339 335 331 330 328 326 325 321 317 315 310 308 303 299 298 297 298 303 328 15 338 272 269 272 87 84 62 44 101 151 148 149 154 163 174 180 182 182 198 203 197 218 197 194 278 219 191 192 186 216 238 194 239 254 262 266 268 268 268 272 275 271 265 266 274 275 291 288 250 138 100 176 170 166 165 166 169 172 172 174 184 188
336 337 341 343 342 340 337 333 331 330 327 326 323 319 316 313 309 305 299 295 292 291 293 295 322 20 281 267 267 275 89 112 106 61 119 150 149 150 159 168 172 180 175 176 202 204 215 243 190 196 248 172 180 186 192 220 284 244 249 260 252 256 257 250 256 264 267 265 254 256 270 267 251 257 245 101 114 184 172 167 170 174 170 172 173 175 188 192
336 336 338 339 339 337 334 332 330 328 326 324 321 318 315 311 306 300 295 290 285 281 281 281 309 24 264 255 256 256 111 139 146 109 129 148 155 150 148 168 178 188 180 188 203 201 227 236 203 212 197 157 172 172 189 205 251 247 248 260 243 240 244 231 241 262 257 261 268 264 265 246 225 233 214 109 190 189 181 175 174 181 172 171 176 180 191 193
336 334 334 336 336 335 333 331 329 326 324 322 320 318 314 311 305 297 291 283 277 270 261 255 260 243 255 261 238 194 168 158 160 147 144 154 160 153 148 169 189 205 223 230 158 185 219 222 219 225 244 214 180 107 151 185 234 245 228 249 251 238 228 189 206 250 239 245 260 249 258 228 200 200 148 139 192 191 187 178 177 185 174 174 180 186 195 193
334 332 333 334 334 333 330 328 328 325 322 322 319 317 318 314 305 298 290 278 266 250 233 198 196 222 247 267 138 187 198 175 191 184 168 169 171 173 176 182 199 205 220 220 122 165 208 207 230 234 230 245 184 119 192 193 217 236 220 228 244 246 173 132 156 243 222 150 186 226 245 233 174 142 124 163 190 195 193 180 179 187 181 182 184 190 198 197
332 332 331 332 333 331 329 328 328 325 323 323 319 320 321 314 308 306 298 283 256 217 194 179 207 224 253 250 158 195 215 201 220 211 194 190 190 202 198 184 187 188 193 193 155 152 196 192 215 218 187 215 235 197 210 205 203 218 234 215 210 233 151 136 161 240 290 102 177 224 241 240 168 115 115 151 188 201 202 188 181 189 189 189 189 194 200 200
332 331 331 331 332 330 329 328 326 325 322 320 320 323 318 307 321 318 311 213 149 150 165 196 210 232 277 252 128 131 188 188 206 199 199 203 206 210 181 164 161 172 182 174 168 150 177 188 205 238 200 192 214 216 217 217 210 208 233 236 193 211 195 157 160 158 321 90 183 230 260 256 150 122 129 151 192 203 209 199 187 193 194 195 197 197 202 201
331 331 331 330 330 330 329 327 325 323 321 320 324 324 301 286 329 352 53 115 125 145 188 233 209 230 268 129 152 166 152 153 133 145 179 201 207 192 157 155 157 163 165 160 179 163 170 186 190 230 222 213 217 219 224 224 219 198 212 242 221 221 245 180 154 150 218 260 220 227 255 270 236 156 154 170 200 205 215 211 195 196 200 206 207 199 201 202
331 330 330 329 330 329 327 325 323 322 321 323 326 319 283 287 305 9 71 130 147 174 211 235 217 235 214 144 188 139 128 138 137 143 163 174 187 180 164 163 155 156 161 160 180 178 175 190 196 206 208 214 217 212 222 236 252 217 201 230 227 219 237 232 178 134 207 263 253 245 242 255 255 226 185 183 205 214 218 219 208 202 204 211 213 205 200 201
329 329 329 328 329 327 327 324 321 323 324 328 332 310 279 281 246 218 198 180 190 215 252 187 204 265 68 121 105 123 136 154 214 178 158 155 168 175 174 167 159 168 179 173 177 182 185 189 199 216 208 206 211 215 229 270 344 274 213 247 251 226 228 229 228 51 309 279 261 256 252 251 253 243 209 186 197 220 222 223 222 214 209 210 214 213 205 203
329 329 327 326 327 327 326 323 322 324 324 331 336 287 254 260 242 197 188 220 232 258 295 268 230 275 298 148 117 174 203 226 225 174 152 160 166 171 174 170 173 189 202 190 167 169 196 206 204 217 219 216 213 220 243 287 332 278 255 254 253 253 250 169 180 244 288 282 266 256 259 260 258 254 237 192 187 219 226 223 228 226 221 215 213 214 210 208
328 328 326 326 327 325 324 323 321 323 325 335 326 275 282 342 318 341 331 255 240 250 271 267 254 271 275 210 121 70 212 208 208 172 154 168 173 175 176 176 187 198 204 193 149 147 201 220 218 221 228 229 215 216 239 261 250 253 256 256 249 254 254 147 183 258 230 257 265 258 261 260 254 256 248 209 193 222 231 228 229 230 229 225 219 213 209 206
327 327 326 325 325 323 323 320 318 322 327 348 297 278 340 21 3 345 323 283 266 247 252 258 258 259 249 235 226 231 277 236 217 186 159 173 187 188 176 181 201 195 180 180 158 170 206 225 227 220 213 205 206 213 220 230 240 243 246 253 252 257 265 192 175 186 176 235 278 279 273 266 259 257 251 231 216 227 233 233 234 231 231 230 225 216 207 200
326 327 326 325 325 323 321 318 318 321 318 266 290 278 9 25 357 312 267 280 285 236 233 245 243 242 234 235 216 198 224 229 224 201 171 178 198 197 184 187 204 195 174 190 203 205 208 223 224 204 177 194 203 202 212 223 233 235 239 249 247 246 264 230 161 157 213 262 281 288 284 273 265 256 251 241 231 233 233 233 237 235 235 233 230 224 210 201
326 326 324 326 324 322 323 322 317 300 228 286 280 258 344 350 337 308 252 273 281 208 201 225 243 250 234 218 183 192 213 218 225 204 172 182 194 188 198 199 202 201 192 203 212 225 227 118 171 192 184 204 208 198 211 227 234 232 235 248 258 259 263 267 254 264 278 254 245 267 272 258 249 241 240 226 214 227 226 226 234 236 239 239 235 230 218 208
327 324 325 327 325 325 329 326 308 222 283 292 248 199 317 326 323 292 255 268 244 172 156 178 201 215 149 113 169 191 217 214 226 207 170 190 197 178 198 205 203 208 207 207 210 233 236 118 142 204 197 209 215 209 215 225 246 242 225 235 257 269 267 270 272 277 279 247 203 228 262 253 230 230 230 199 192 213 208 212 230 232 237 237 234 230 221 212
325 323 325 326 325 331 336 329 234 292 295 274 163 160 306 318 309 256 253 269 206 149 149 182 181 144 149 161 165 183 210 194 208 202 182 199 203 192 199 187 202 226 212 202 209 243 230 151 178 212 203 212 220 224 221 218 246 254 213 220 247 260 261 261 257 238 263 271 158 200 262 271 236 223 215 196 202 212 196 196 228 236 240 237 235 232 223 212
322 321 323 324 327 334 339 320 311 300 284 155 143 217 302 313 286 216 244 247 189 130 141 166 133 114 125 166 175 192 190 125 155 184 192 203 196 200 217 185 191 229 193 177 208 219 205 191 198 205 204 215 220 226 214 209 239 254 93 222 247 251 251 244 238 232 258 303 180 208 244 268 262 237 204 199 227 223 193 172 206 258 264 251 243 237 227 214
320 319 321 320 320 320 303 293 299 289 272 110 163 268 312 305 225 206 253 237 150 108 142 114 100 133 96 153 198 222 308 36 178 169 178 198 194 198 221 206 200 199 171 185 215 157 181 200 198 201 213 220 223 228 199 197 237 257 83 273 265 268 260 241 232 232 247 280 237 216 217 243 259 240 194 200 232 225 182 133 4 324 303 269 246 236 222 207
318 318 318 317 317 311 276 265 269 263 244 182 265 306 315 255 209 224 259 252 151 137 111 110 140 179 170 169 205 229 261 263 249 134 160 190 202 217 235 226 218 198 178 208 236 131 145 204 209 210 220 222 229 237 218 208 234 264 234 245 258 255 248 232 230 233 216 239 251 224 203 232 260 243 210 205 230 233 146 62 352 354 324 270 227 224 209 190
316 314 315 316 319 317 271 251 252 251 249 262 295 319 279 214 223 231 217 238 166 125 124 161 156 272 304 256 195 201 222 228 141 142 165 177 192 213 262 250 228 205 181 213 241 160 112 123 223 223 225 231 239 238 226 224 232 252 229 227 225 215 212 211 224 238 221 229 247 233 208 234 261 253 233 166 225 312 7 347 355 0 336 224 188 200 194 180
314 310 310 305 301 295 272 253 238 223 221 272 320 296 236 205 243 241 179 159 284 122 140 151 83 322 317 312 196 177 197 200 162 160 169 171 182 196 205 200 204 207 196 209 230 210 174 175 195 210 217 231 247 213 193 219 225 229 237 231 219 202 195 210 204 208 236 238 235 213 208 232 252 256 68 76 65 6 353 343 354 352 352 98 165 177 172 167
309 306 302 287 271 256 248 239 129 197 239 305 312 244 216 196 227 233 147 165 250 64 83 53 6 334 321 300 245 209 201 189 181 182 179 177 181 191 200 195 181 195 207 202 207 210 205 210 211 206 202 212 231 209 171 188 208 217 230 230 228 213 196 216 210 202 233 229 133 148 200 232 249 256 76 68 39 15 360 351 349 341 350 77 145 154 148 148
307 305 298 282 257 240 239 242 253 258 269 284 258 221 218 222 220 217 201 193 69 30 14 342 327 319 299 264 226 256 217 171 176 194 190 184 189 194 202 207 201 204 219 206 201 205 206 211 212 212 205 204 222 224 183 184 198 208 218 219 226 225 210 220 218 215 230 206 131 168 220 247 248 221 61 40 31 22 5 3 356 343 358 63 118 135 143 149
309 304 292 274 244 235 233 235 242 245 255 248 219 196 208 219 186 82 252 110 42 355 322 329 318 301 271 245 31 360 228 161 168 192 189 186 196 197 198 209 212 215 224 208 206 218 220 213 199 207 208 191 205 224 225 213 202 205 219 228 233 239 235 237 236 239 241 208 148 171 208 255 252 138 56 33 49 33 13 27 28 10 28 79 111 130 142 146
318 310 283 253 240 238 225 217 214 204 229 233 207 192 203 210 166 135 208 29 26 334 313 316 300 276 230 181 83 1 308 176 178 192 191 188 198 199 197 201 204 210 216 205 201 215 231 236 182 188 193 184 199 212 223 236 226 200 213 231 239 245 243 249 284 320 293 252 198 186 225 273 252 132 138 146 97 57 31 42 60 78 96 112 116 134 152 145
327 315 268 219 222 235 207 201 194 199 234 227 199 201 209 227 34 101 51 2 357 340 317 288 256 258 228 177 174 141 328 214 188 194 195 193 199 200 199 194 194 205 212 205 189 196 227 227 154 164 186 204 214 208 205 222 227 183 207 225 226 249 256 249 205 100 292 263 236 203 244 250 164 156 159 161 153 106 52 54 92 99 107 114 125 158 171 144
321 291 225 141 169 192 177 177 177 197 233 224 205 210 200 60 30 49 42 352 331 332 307 277 188 287 267 199 178 131 139 206 194 209 202 190 198 198 201 194 191 206 214 221 221 212 237 225 156 178 196 190 211 230 210 221 227 198 211 221 200 230 254 249 240 213 225 249 237 211 247 247 215 209 165 171 180 153 94 92 110 123 124 124 142 141 116 102
304 276 145 80 51 149 147 155 170 199 222 216 207 202 335 154 92 49 13 339 294 277 282 276 5 316 284 249 192 67 324 240 197 213 209 195 192 181 206 200 189 208 221 233 233 201 238 237 177 185 191 162 171 214 213 211 223 232 260 266 227 228 229 219 232 242 239 250 249 226 239 247 248 232 173 182 185 146 143 122 119 128 124 129 139 113 96 96
279 244 145 45 23 141 134 148 182 217 212 210 205 172 181 165 138 185 263 287 269 265 276 290 303 263 274 304 325 32 325 302 230 216 215 203 196 261 265 213 183 200 222 233 230 196 225 242 202 175 171 160 173 203 212 192 201 227 255 255 239 245 250 228 221 236 244 250 250 237 228 228 305 46 134 156 144 130 141 116 103 90 89 109 117 108 100 97
258 218 123 39 145 146 135 172 210 221 200 211 230 151 149 154 159 194 225 258 261 264 288 306 262 260 292 309 318 6 325 310 293 247 225 199 191 198 313 307 187 175 186 217 227 215 210 230 222 169 159 184 196 202 222 209 196 209 220 224 223 222 247 255 235 232 250 256 247 246 242 153 63 32 79 105 100 119 135 98 89 77 70 86 86 92 108 107
246 193 110 69 156 152 184 222 206 209 201 195 150 132 125 332 254 192 192 234 252 256 291 291 272 277 304 299 300 355 318 283 266 258 236 206 199 183 47 355 320 177 169 201 212 211 205 217 230 207 186 211 202 132 44 292 241 227 224 223 223 220 226 238 230 219 239 259 260 264 264 115 75 11 63 99 81 103 131 108 104 101 87 71 61 60 69 70
229 171 104 123 146 172 252 220 127 228 227 146 98 101 62 329 291 237 192 212 232 230 235 264 269 271 282 291 307 335 317 279 260 258 240 198 74 42 24 359 318 279 235 200 174 167 228 231 233 230 227 221 129 103 87 27 289 243 244 242 239 234 228 230 235 223 218 234 248 262 262 125 74 343 74 108 36 42 117 132 135 114 83 68 58 51 46 40
190 125 102 133 133 300 268 189 133 204 159 85 39 130 151 262 241 215 207 207 223 226 218 239 259 255 261 324 314 314 328 294 275 276 235 168 74 44 20 15 319 262 251 210 132 96 146 235 237 235 234 214 134 125 133 147 213 216 213 238 259 254 244 239 253 262 238 225 225 242 246 159 92 266 183 137 82 61 62 50 71 84 74 63 56 48 42 38
148 106 120 145 175 299 270 171 133 147 111 107 143 131 149 222 274 267 232 194 240 242 240 248 256 261 288 326 296 304 329 296 260 25 311 233 81 50 31 28 11 298 334 327 251 159 189 232 233 228 223 208 187 185 183 188 214 217 143 102 298 281 258 238 241 253 252 234 226 242 248 121 121 177 168 139 97 68 51 42 52 67 66 55 48 39 33 33
151 121 130 153 211 269 273 25 7 93 109 126 109 84 131 159 111 332 306 28 13 303 275 288 292 285 292 285 271 280 302 286 273 299 301 245 96 67 40 33 36 41 19 354 306 178 186 246 236 234 229 216 207 209 210 199 193 171 105 83 18 321 259 245 241 238 242 228 224 245 251 120 133 156 143 121 93 73 60 53 57 64 59 51 47 39 32 28
168 150 143 156 182 218 106 51 305 313 114 145 120 71 117 150 118 67 278 228 67 35 325 356 325 263 282 292 268 254 255 259 270 286 303 319 65 65 36 31 35 23 8 356 227 188 193 177 238 272 271 271 298 324 330 306 181 153 101 71 37 3 300 264 247 238 257 246 229 230 167 141 155 166 147 112 88 80 69 57 55 61 58 55 54 52 50 43
189 172 156 160 172 175 156 161 219 60 103 201 147 73 82 151 136 142 223 332 62 77 270 24 19 288 329 335 284 266 287 252 237 299 336 337 344 73 59 55 29 358 358 9 169 222 246 193 187 236 292 345 349 354 7 11 92 99 66 51 29 15 342 263 245 291 315 272 242 222 138 144 141 133 125 103 88 81 71 59 52 57 60 63 69 69 65 59
233 154 117 342 208 157 138 124 110 106 117 148 159 96 129 137 145 153 158 158 124 288 255 157 53 33 28 4 298 267 282 251 186 36 12 359 353 294 107 84 71 358 359 10 6 279 269 221 176 175 167 36 1 1 44 70 79 73 58 43 27 22 18 351 358 3 342 288 236 275 117 115 88 61 63 76 82 79 74 70 63 63 67 71 73 67 61 57
78 131 103 333 302 104 85 89 125 131 107 94 158 143 110 101 103 97 63 209 171 34 319 231 62 26 23 357 305 284 304 286 90 54 26 8 5 333 21 86 73 39 28 6 348 9 329 224 166 157 146 120 97 42 67 107 93 74 57 41 30 29 34 34 28 6 356 37 97 113 96 77 56 49 52 60 75 83 80 76 68 63 66 67 67 60 55 55
189 132 121 155 130 98 100 125 171 154 121 203 163 111 82 71 67 56 18 290 197 68 359 18 50 11 351 331 297 257 46 4 10 31 3 347 8 26 19 20 11 28 41 22 351 358 333 217 163 166 157 135 134 126 114 115 98 84 65 43 32 38 41 32 19 356 335 38 95 117 105 75 51 69 71 66 79 85 76 68 63 58 59 63 65 59 53 53
353 23 245 177 133 115 150 152 203 185 135 148 131 103 128 87 40 18 90 90 346 23 34 21 16 10 327 293 285 237 86 14 337 339 335 321 322 360 4 267 292 7 45 81 15 326 319 5 201 217 189 147 155 153 130 117 109 89 58 32 20 27 30 16 18 6 339 343 119 154 130 97 93 91 82 71 69 72 66 62 61 59 59 63 64 61 55 53
212 104 253 228 141 147 200 161 192 215 109 82 88 107 125 66 34 347 150 150 208 31 36 2 333 312 236 174 40 22 14 345 326 323 319 303 292 300 284 268 275 293 325 114 148 252 303 128 203 242 208 150 156 153 137 149 172 108 42 11 358 9 14 4 35 24 351 333 304 223 90 99 125 114 90 73 63 63 61 57 60 65 65 67 66 64 60 56